When you browse on this site, cookies collect data to enhance your experience and personalize the content and advertising you see.
Visit our Privacy Policy to learn more. By continuing to use the site, you agree to this use of cookies and data.
  • In Hungary
  • List of Countries
  • For 7 days
  • Water Temperature
  • Satellite Maps
  • Weather Map
  • News
  • Weather Widgets
  • user-avatar
    Login

    Hourly Weather Covasna

    Today, 25 March, Monday

    Time Temperature Precipitation Wind Pressure Humidity
    00:00 +6°C° 0 mm 1 mps 703 mmHg 81%
    01:00 +6°C° 0 mm 1 mps 703 mmHg 82%
    02:00 +5°C° 0 mm 1 mps 703 mmHg 83%
    03:00 +5°C° 0 mm 1 mps 702 mmHg 83%
    04:00 +5°C° 0 mm 1 mps 702 mmHg 84%
    05:00 +5°C° 0 mm 1 mps 701 mmHg 84%
    06:00 +6°C° 0 mm 1 mps 701 mmHg 80%
    07:00 +8°C° 0 mm 1 mps 701 mmHg 76%
    08:00 +9°C° 0 mm 1 mps 700 mmHg 71%
    09:00 +10°C° 0 mm 2 mps 700 mmHg 62%
    10:00 +12°C° 0 mm 4 mps 700 mmHg 53%
    11:00 +14°C° 0 mm 5 mps 700 mmHg 45%
    12:00 +14°C° 0 mm 5 mps 699 mmHg 44%
    13:00 +14°C° 0 mm 5 mps 699 mmHg 43%
    14:00 +15°C° 0 mm 5 mps 698 mmHg 43%
    15:00 +14°C° 0 mm 5 mps 698 mmHg 44%
    16:00 +14°C° 0 mm 4 mps 698 mmHg 46%
    17:00 +14°C° 0 mm 4 mps 697 mmHg 48%
    18:00 +12°C° 0 mm 3 mps 697 mmHg 56%
    19:00 +10°C° 0 mm 3 mps 697 mmHg 63%
    20:00 +9°C° 0 mm 2 mps 697 mmHg 71%
    21:00 +8°C° 0.4 mm 2 mps 697 mmHg 75%
    22:00 +8°C° 0.4 mm 2 mps 698 mmHg 79%
    23:00 +8°C° 0.4 mm 1 mps 698 mmHg 83%

    Tomorrow, 26 March, Tuesday

    Time Temperature Precipitation Wind Pressure Humidity
    00:00 +7°C° 0.2 mm 1 mps 698 mmHg 84%
    01:00 +7°C° 0.2 mm 1 mps 698 mmHg 85%
    02:00 +6°C° 0.2 mm 1 mps 698 mmHg 86%
    03:00 +5°C° 0 mm 1 mps 698 mmHg 86%
    04:00 +5°C° 0 mm 1 mps 699 mmHg 85%
    05:00 +5°C° 0 mm 1 mps 699 mmHg 85%
    06:00 +5°C° 0 mm 1 mps 699 mmHg 84%
    07:00 +5°C° 0 mm 1 mps 700 mmHg 83%
    08:00 +6°C° 0 mm 1 mps 700 mmHg 82%
    09:00 +5°C° 0.4 mm 2 mps 701 mmHg 81%
    10:00 +5°C° 0.4 mm 2 mps 701 mmHg 80%
    11:00 +4°C° 0.4 mm 3 mps 702 mmHg 79%
    12:00 +5°C° 0.4 mm 3 mps 702 mmHg 76%
    13:00 +6°C° 0.4 mm 2 mps 702 mmHg 73%
    14:00 +6°C° 0.4 mm 2 mps 702 mmHg 70%
    15:00 +6°C° 0.2 mm 2 mps 702 mmHg 69%
    16:00 +6°C° 0.2 mm 2 mps 702 mmHg 67%
    17:00 +6°C° 0.2 mm 2 mps 702 mmHg 65%
    18:00 +5°C° 0 mm 2 mps 703 mmHg 69%
    19:00 +5°C° 0 mm 1 mps 703 mmHg 72%
    20:00 +4°C° 0 mm 1 mps 703 mmHg 75%
    21:00 +3°C° 0 mm 1 mps 703 mmHg 78%
    22:00 +2°C° 0 mm 2 mps 704 mmHg 80%
    23:00 +1°C° 0 mm 2 mps 704 mmHg 83%

    Day after tomorrow, 27 March, Wednesday

    Time Temperature Precipitation Wind Pressure Humidity
    00:00 -1°C° 0 mm 2 mps 704 mmHg 84%
    01:00 -1°C° 0 mm 2 mps 704 mmHg 85%
    02:00 -2°C° 0 mm 2 mps 704 mmHg 86%
    03:00 -2°C° 0 mm 2 mps 704 mmHg 86%
    04:00 -2°C° 0 mm 2 mps 704 mmHg 85%
    05:00 -2°C° 0 mm 2 mps 704 mmHg 84%
    06:00 -1°C° 0 mm 2 mps 705 mmHg 80%
    07:00 -1°C° 0 mm 3 mps 705 mmHg 76%
    08:00 0°C° 0 mm 3 mps 706 mmHg 72%
    09:00 +1°C° 0 mm 3 mps 706 mmHg 67%
    10:00 +3°C° 0 mm 4 mps 707 mmHg 62%
    11:00 +4°C° 0 mm 4 mps 707 mmHg 57%
    12:00 +4°C° 0 mm 4 mps 707 mmHg 55%
    13:00 +5°C° 0 mm 4 mps 707 mmHg 52%
    14:00 +5°C° 0 mm 3 mps 708 mmHg 49%
    15:00 +5°C° 0 mm 3 mps 708 mmHg 49%
    16:00 +4°C° 0 mm 3 mps 708 mmHg 49%
    17:00 +5°C° 0 mm 2 mps 708 mmHg 49%
    18:00 +4°C° 0 mm 2 mps 708 mmHg 55%
    19:00 +2°C° 0 mm 2 mps 709 mmHg 61%
    20:00 +2°C° 0 mm 1 mps 709 mmHg 67%
    21:00 -1°C° 0 mm 2 mps 710 mmHg 68%
    22:00 -2°C° 0 mm 2 mps 710 mmHg 68%
    23:00 -2°C° 0 mm 2 mps 710 mmHg 69%

    28 March, Thursday

    Time Temperature Precipitation Wind Pressure Humidity
    00:00 -1°C° 0 mm 1 mps 710 mmHg 70%
    01:00 -1°C° 0 mm 1 mps 711 mmHg 71%
    02:00 -1°C° 0 mm 1 mps 711 mmHg 72%
    03:00 -1°C° 0 mm 1 mps 711 mmHg 72%
    04:00 -1°C° 0 mm 1 mps 711 mmHg 72%
    05:00 -1°C° 0 mm 1 mps 711 mmHg 72%
    06:00 -1°C° 0 mm 1 mps 712 mmHg 67%
    07:00 0°C° 0 mm 1 mps 712 mmHg 62%
    08:00 -1°C° 0 mm 2 mps 712 mmHg 57%
    09:00 +1°C° 0 mm 2 mps 713 mmHg 51%
    10:00 +1°C° 0 mm 3 mps 713 mmHg 45%
    11:00 +2°C° 0 mm 3 mps 713 mmHg 39%
    12:00 +3°C° 0 mm 3 mps 713 mmHg 38%
    13:00 +4°C° 0 mm 3 mps 712 mmHg 37%
    14:00 +4°C° 0 mm 3 mps 712 mmHg 36%
    15:00 +4°C° 0 mm 3 mps 712 mmHg 38%
    16:00 +3°C° 0 mm 3 mps 712 mmHg 39%
    17:00 +3°C° 0 mm 3 mps 712 mmHg 41%
    18:00 +1°C° 0 mm 3 mps 712 mmHg 48%
    19:00 -1°C° 0 mm 2 mps 712 mmHg 54%
    20:00 0°C° 0 mm 1 mps 713 mmHg 61%
    21:00 -1°C° 0 mm 1 mps 713 mmHg 62%
    22:00 -1°C° 0 mm 1 mps 713 mmHg 63%
    23:00 -1°C° 0 mm 1 mps 713 mmHg 64%

    29 March, Friday

    Time Temperature Precipitation Wind Pressure Humidity
    00:00 -1°C° 0 mm 1 mps 713 mmHg 64%
    01:00 -2°C° 0 mm 1 mps 713 mmHg 65%
    02:00 -2°C° 0 mm 1 mps 713 mmHg 65%
    03:00 -2°C° 0 mm 1 mps 713 mmHg 66%
    04:00 -2°C° 0 mm 1 mps 713 mmHg 66%
    05:00 -2°C° 0 mm 1 mps 713 mmHg 67%
    06:00 -1°C° 0 mm 1 mps 714 mmHg 62%
    07:00 0°C° 0 mm 1 mps 714 mmHg 57%
    08:00 -1°C° 0 mm 2 mps 714 mmHg 52%
    09:00 +2°C° 0 mm 2 mps 714 mmHg 48%
    10:00 +4°C° 0 mm 2 mps 714 mmHg 44%
    11:00 +4°C° 0 mm 3 mps 714 mmHg 40%
    12:00 +5°C° 0 mm 3 mps 714 mmHg 39%
    13:00 +7°C° 0 mm 3 mps 713 mmHg 38%
    14:00 +8°C° 0 mm 3 mps 713 mmHg 37%
    15:00 +8°C° 0 mm 3 mps 712 mmHg 39%
    16:00 +7°C° 0 mm 3 mps 712 mmHg 41%
    17:00 +7°C° 0 mm 3 mps 711 mmHg 43%
    18:00 +5°C° 0 mm 2 mps 711 mmHg 51%
    19:00 +4°C° 0 mm 1 mps 711 mmHg 59%
    20:00 +2°C° 0 mm 1 mps 711 mmHg 67%
    21:00 +2°C° 0 mm 1 mps 711 mmHg 69%
    22:00 +1°C° 0 mm 1 mps 711 mmHg 72%
    23:00 +1°C° 0 mm 1 mps 711 mmHg 74%

    30 March, Saturday

    Time Temperature Precipitation Wind Pressure Humidity
    00:00 +1°C° 0 mm 1 mps 711 mmHg 75%
    01:00 +1°C° 0 mm 1 mps 711 mmHg 77%
    02:00 +1°C° 0 mm 1 mps 711 mmHg 78%
    03:00 +1°C° 0 mm 1 mps 711 mmHg 80%
    04:00 +1°C° 0 mm 1 mps 711 mmHg 81%
    05:00 +1°C° 0 mm 1 mps 711 mmHg 83%
    06:00 +2°C° 0 mm 1 mps 711 mmHg 80%
    07:00 +3°C° 0 mm 1 mps 711 mmHg 76%
    08:00 +4°C° 0 mm 1 mps 711 mmHg 73%
    09:00 +6°C° 0 mm 1 mps 711 mmHg 67%
    10:00 +7°C° 0 mm 2 mps 711 mmHg 62%
    11:00 +9°C° 0 mm 2 mps 711 mmHg 56%
    12:00 +10°C° 0 mm 2 mps 711 mmHg 53%
    13:00 +12°C° 0 mm 2 mps 710 mmHg 50%
    14:00 +13°C° 0 mm 2 mps 710 mmHg 47%
    15:00 +13°C° 0 mm 2 mps 710 mmHg 49%
    16:00 +13°C° 0 mm 2 mps 709 mmHg 51%
    17:00 +12°C° 0 mm 2 mps 709 mmHg 52%
    18:00 +10°C° 0 mm 1 mps 709 mmHg 60%
    19:00 +8°C° 0 mm 1 mps 709 mmHg 69%
    20:00 +5°C° 0 mm 0 mps 708 mmHg 77%
    21:00 +4°C° 0 mm 0 mps 708 mmHg 78%
    22:00 +4°C° 0 mm 0 mps 708 mmHg 80%
    23:00 +3°C° 0 mm 0 mps 708 mmHg 81%
    Show more